Find Starlink 11101

NORAD ID: 59715 Int'l Des: 2024-088 Owner: SPXS Country: US Constellation: starlink operational
LEOCIRCULAR

現在のビュー

3D地球を読み込み中...

About Starlink 11101

Starlink 11101 (NORAD 59715) is a starlink constellation satellite (v2 mini d2c) launched May 10, 2024 by SPXS of US. It operates in LEO, CIRCULAR orbit with a mass of 960.00 kg.

Starlink 11101について

説明を読み込み中...

次回通過

Passes for default location (London). Set your location on the main map for personalized predictions.

高度履歴

Loading altitude history...

軌道要素

1 59715U 24088H 26171.45315674 -.00001819 00000-0 -10168-4 0 9992
2 59715 53.1597 179.5899 0001140 72.7533 287.3609 15.69697423122417
Epoch: Jun 20, 2026 • Age: 23 hours

現在のステータス

高度 365.0 km
速度 7.70 km/s
衛星直下点 50.62°N, 133.68°W
打ち上げ日 May 10, 2024
運用期間 2.1 years
タイプ internet

技術仕様

分類 Payload
質量 960.00 kg
乾燥質量 910.00 kg
総質量 960.00 kg
長さ 0.30 m
直径 4.10 m
スパン 29.00 m
形状 Box + pan
製造者 SPXS
バスタイプ Starlink V2MD
フェーズステータス In Orbit
所有者/国 SPXS/US

Most Searched